Regional Weather Roundup
Issued by NWS

Home | Current Version | Previous Version | Graphics & Text | Print | Product List | Glossary On
Versions: 1 2 3 4 5 6 7 8 9 10 11 12 13 14 15 16 17 18 19 20 21 22 23 24 25 26 27 28 29 30 31 32 33 34 35 36 37 38 39 40 41 42 43 44 45 46 47 48 49 50
000
ASUS43 KBIS 282110
RWRND

NORTH DAKOTA REGIONAL WEATHER ROUNDUP
NATIONAL WEATHER SERVICE BISMARCK ND
400 PM CDT TUE JUL 28 2015

NOTE: "FAIR" INDICATES FEW OR NO CLOUDS BELOW 12,000 FEET WITH NO
SIGNIFICANT WEATHER AND/OR OBSTRUCTIONS TO VISIBILITY.


NDZ001>003-009>011-017-282200-
NORTHWEST NORTH DAKOTA

CITY           SKY/WX    TMP DP  RH WIND       PRES   REMARKS
WILLISTON      LGT RAIN  60  55  83 W30G49    29.62R
MINOT          CLOUDY    66  50  56 SW28G46   29.52S
MINOT AFB      PTSUNNY   66  55  68 SW31G48   29.48S SQUALL
$$

NDZ018>021-031>035-040>046-282200-
SOUTHWEST NORTH DAKOTA

CITY           SKY/WX    TMP DP  RH WIND       PRES   REMARKS
BISMARCK       CLOUDY    72  50  45 W31G46    29.76R
DICKINSON      CLOUDY    63  46  54 W37G49    29.80R
GARRISON         N/A     68  52  56 W35G47    29.63R
HETTINGER ARPT CLOUDY    66  45  46 W39G54    29.92R
$$

NDZ004>008-012>016-024-026-027-054-282200-
NORTHEAST NORTH DAKOTA

CITY           SKY/WX    TMP DP  RH WIND       PRES   REMARKS
GRAND FORKS    PTSUNNY   77  54  44 SW25G32   29.63R
GRND FRKS AFB  MOSUNNY   77  55  45 SW28G36   29.63S
DEVILS LAKE    CLOUDY    72  54  53 SW33G39   29.58S
$$

NDZ022-023-025-028>030-036>039-047>053-282200-
SOUTHEAST NORTH DAKOTA

CITY           SKY/WX    TMP DP  RH WIND       PRES   REMARKS
FARGO          MOSUNNY   80  55  42 SW20G35   29.72R
JAMESTOWN      PTSUNNY   73  51  46 W22G30    29.71R
$$



USA.gov is the U.S. government's official web portal to all federal, state and local government web resources and services.